Probability
0 0 0 0 0 0 0 0 0 0 0 0 1 0 0 0 0 0 0 0 2 5 6 6 5 3 1 0 1 0 0 0 0 0 0 0 0 0 0 0 0 0 0 0 0 0 0 0 0
0 0 0 0 0 0 0 0 0 0 0 0 1 0 0 0 0 0 0 0 2 5 6 5 7 6 4 3 3 2 1 1 1 0 0 0 0 0 0 0 0 0 0 0 0 0 0 0 0
0 0 0 0 0 0 0 0 0 0 0 1 1 1 0 0 0 0 1 3 6 7 7 7 9 10 8 7 7 6 4 3 2 1 1 1 0 0 0 0 0 0 0 0 0 0 0 0 0
0 0 0 0 0 0 0 0 0 1 1 2 4 3 1 1 2 2 4 9 13 12 11 11 12 13 12 11 9 8 5 4 3 3 2 2 1 0 0 0 0 0 0 0 0 0 0 0 0
0 0 0 0 0 0 0 0 0 1 3 6 10 8 3 2 5 7 10 15 19 19 17 17 16 15 14 12 10 7 5 3 3 3 3 2 1 0 0 0 0 0 0 0 0 0 0 0 0
0 0 0 0 0 0 0 1 0 1 6 13 17 13 8 8 12 15 16 17 22 26 25 22 19 17 17 14 9 5 4 3 2 3 2 1 0 0 0 0 0 0 0 0 0 0 0 0 0
0 0 0 0 0 0 0 0 1 3 9 17 21 18 13 16 21 24 22 22 25 30 32 29 24 21 20 16 9 5 3 2 1 2 2 1 0 0 0 0 0 0 0 0 0 0 0 0 0
0 0 0 0 0 0 0 0 2 7 14 20 22 19 19 26 34 35 34 32 31 32 34 33 29 26 23 17 10 5 3 1 1 1 1 0 0 0 0 0 0 0 0 0 0 0 0 0 0
0 0 0 0 0 0 0 1 5 13 21 23 21 21 28 40 47 47 48 44 37 32 32 32 30 28 25 18 10 5 3 2 1 1 1 1 1 1 0 0 0 0 0 0 0 0 0 0 0
0 0 0 0 0 0 0 2 8 17 22 21 21 28 43 54 55 53 53 50 42 35 33 32 30 27 24 19 12 8 5 3 1 1 2 2 2 2 1 0 0 0 0 0 0 0 0 0 0
0 0 0 0 0 0 0 2 8 15 18 19 26 42 57 60 55 52 50 48 43 38 36 34 30 26 24 22 18 12 7 3 1 1 2 3 3 2 1 0 0 0 0 0 0 0 0 0 0
0 0 0 0 0 0 1 2 7 13 16 21 34 53 63 60 53 47 42 40 39 38 37 34 30 26 24 25 21 13 6 3 1 1 2 3 3 2 1 0 0 0 0 0 0 0 0 0 0
0 0 0 0 0 0 1 4 9 15 19 27 40 52 55 51 48 41 33 34 36 36 34 31 28 27 27 25 19 11 6 3 2 1 1 1 2 1 0 0 0 0 0 0 0 0 0 0 0
0 0 0 0 0 0 1 5 11 17 25 34 41 45 43 41 41 36 30 30 31 30 27 24 23 25 26 20 12 7 4 3 2 1 0 0 0 0 0 0 0 0 0 0 0 0 0 0 0
0 0 0 0 0 0 1 4 10 19 30 40 41 39 37 38 38 36 32 28 25 21 19 17 16 19 19 14 7 4 2 1 1 1 0 0 0 0 0 0 0 0 0 0 0 0 0 0 0
0 0 0 0 0 0 0 2 8 19 32 38 38 36 35 34 33 32 28 25 20 15 12 12 11 11 11 9 5 3 1 0 1 1 0 0 0 0 0 0 0 0 0 0 0 0 0 0 0
0 0 0 0 0 0 0 1 7 16 26 31 32 32 30 26 24 23 21 19 16 12 9 9 8 6 6 7 5 2 1 1 1 0 0 0 0 0 0 0 0 0 0 0 0 0 0 0 0
0 0 0 0 0 0 0 2 6 12 18 23 26 26 24 20 16 15 15 16 14 13 11 10 8 7 8 8 4 2 2 1 1 0 0 0 0 0 0 0 0 0 0 0 0 0 0 0 0
0 0 0 0 0 0 0 1 4 8 10 14 19 19 19 17 13 11 13 14 15 14 13 13 13 12 11 9 5 3 2 1 0 0 0 0 0 0 0 0 0 0 0 0 0 0 0 0 0
0 0 0 0 0 0 0 0 2 4 6 8 10 12 13 14 12 10 11 13 15 15 14 14 15 14 11 8 4 3 2 0 0 0 0 0 0 0 0 0 0 0 0 0 0 0 0 0 0
0 0 0 0 0 0 0 0 1 2 3 5 6 7 9 12 12 10 11 14 16 16 15 15 14 12 10 7 4 2 1 0 0 0 0 0 0 0 0 0 0 0 0 0 0 0 0 0 0
0 0 0 0 0 0 0 0 0 1 1 2 4 6 8 10 10 10 11 14 16 17 16 14 12 10 9 7 4 1 0 0 0 1 1 0 0 0 0 0 0 0 0 0 0 0 0 0 0
0 0 0 0 0 0 0 0 0 0 0 0 2 4 6 7 8 10 11 12 15 16 14 12 10 9 8 6 5 2 0 0 0 1 2 1 0 0 0 0 0 0 0 0 0 0 0 0 0
0 0 0 0 0 0 0 0 0 0 0 0 1 3 3 3 5 8 9 10 12 13 12 10 9 8 7 6 5 2 1 0 0 1 1 1 0 0 0 0 0 0 0 0 0 0 0 0 0
0 0 0 0 0 0 0 0 0 0 0 0 1 2 2 1 2 6 8 8 8 9 10 9 7 6 6 6 5 2 1 0 0 1 1 1 0 0 0 0 0 0 0 0 0 0 0 0 0
0 0 0 0 0 0 0 0 0 0 0 0 0 1 1 0 1 3 5 4 5 7 8 8 7 5 5 5 4 2 1 1 1 1 1 1 1 0 0 0 0 0 0 0 0 0 0 0 0
0 0 0 0 0 0 0 0 0 0 0 0 0 0 0 0 1 1 1 1 3 6 8 8 7 6 5 4 3 3 4 4 3 2 1 0 0 0 0 0 0 0 0 0 0 0 0 0 0
0 0 0 0 0 0 0 0 0 0 0 0 0 0 0 0 0 0 0 0 2 5 6 6 6 6 5 4 3 4 6 6 5 3 1 1 1 0 0 0 0 0 0 0 0 0 0 0 0
0 0 0 0 0 0 0 0 0 0 0 0 0 0 0 0 0 0 0 0 2 4 4 3 3 4 5 5 5 5 6 6 6 5 4 3 2 1 1 0 0 0 0 0 0 0 0 0 0
0 0 0 0 0 0 0 0 0 0 0 1 1 1 1 1 1 0 0 1 2 4 4 2 1 3 5 6 6 6 6 6 6 6 6 5 3 2 2 1 0 0 1 1 1 0 0 0 0
Wind_Speed
4 3 2 1 3 3 2 3 2 1 1 1 2 3 4 4 4 3 2 11 17 15 13 16 18 18 17 17 17 17 16 16 16 16 16 15 15 14 14 13 13 13 13 13 13 13 13 13 13
3 3 1 2 3 2 4 2 3 4 2 2 2 2 2 1 2 5 6 10 17 15 11 13 19 18 18 17 17 16 16 16 15 15 15 14 14 14 13 13 13 13 13 13 13 13 13 13 12
3 2 3 3 2 3 3 3 4 2 4 3 2 1 1 2 5 6 6 14 14 13 11 14 20 18 18 17 16 16 16 15 15 14 14 14 13 13 13 12 13 12 12 13 13 12 12 12 11
2 3 3 3 2 5 5 4 3 3 3 2 3 2 1 1 5 7 13 15 15 12 10 14 20 19 18 17 16 16 15 15 14 14 13 13 12 12 12 12 12 12 12 12 12 11 11 10 10
3 4 4 2 5 6 5 5 6 6 4 3 4 3 1 3 7 13 15 15 14 11 9 12 19 19 18 17 17 16 15 15 14 13 12 12 11 11 11 11 11 11 11 11 10 10 9 8 8
4 4 3 2 5 5 4 4 5 4 3 4 5 4 0 2 10 13 13 12 12 12 9 10 18 18 18 17 17 16 15 14 14 13 12 11 11 10 10 10 10 10 10 9 9 8 7 7 6
4 4 2 3 4 4 2 2 5 4 4 4 5 5 1 3 7 11 11 11 11 11 10 8 10 13 17 17 17 16 15 14 13 13 12 11 11 10 9 9 9 9 8 8 7 7 6 6 5
4 4 1 3 4 4 1 1 1 4 3 3 5 6 5 6 9 10 10 9 9 9 8 8 8 8 8 10 16 15 15 14 13 12 12 11 10 9 9 7 8 8 7 7 6 6 6 5 5
4 4 2 4 4 4 1 1 0 2 4 3 1 2 4 15 14 13 11 9 9 9 7 7 7 7 7 7 11 13 14 13 12 10 12 9 4 4 4 6 7 7 6 5 5 5 5 5 4
4 3 7 6 5 4 3 2 4 3 2 2 2 4 12 16 16 16 15 15 14 12 10 7 7 7 7 7 6 4 5 6 5 4 5 4 3 3 3 4 6 6 5 4 4 4 4 4 2
6 7 6 6 6 5 3 2 4 7 5 8 8 12 16 16 15 15 15 14 14 13 12 9 8 7 7 4 5 3 3 3 4 4 5 4 3 2 2 1 1 2 3 2 3 3 3 2 2
5 8 6 6 3 3 4 3 3 5 7 6 10 16 18 17 16 15 14 13 11 12 11 10 8 7 6 4 4 4 3 3 3 4 5 4 2 2 2 1 1 2 1 2 2 2 2 2 1
5 6 5 7 6 3 3 3 3 3 2 6 11 14 15 15 13 9 8 8 9 11 11 10 9 8 6 5 4 5 4 4 4 3 4 4 3 3 2 1 1 2 1 1 1 1 2 2 1
4 5 6 6 3 1 3 1 3 4 5 9 11 12 13 12 10 9 8 9 10 11 11 10 10 8 7 5 4 4 4 4 3 3 4 5 4 3 3 2 2 2 1 1 1 1 1 1 1
3 5 7 3 1 1 3 1 3 4 8 9 9 9 10 8 9 10 11 10 11 10 10 10 10 8 8 7 6 4 4 4 3 3 4 4 4 4 4 3 2 2 2 2 1 2 2 1 1
3 3 5 6 1 0 2 6 4 5 8 8 8 8 8 6 7 8 8 8 9 10 10 10 10 9 8 7 6 4 4 4 3 3 3 4 4 5 4 3 2 2 2 2 2 1 2 2 1
5 3 4 7 2 0 1 6 3 4 7 7 7 7 6 5 5 6 7 9 9 10 11 10 8 9 8 7 5 5 4 4 4 3 3 4 4 5 4 3 3 3 3 2 2 2 2 1 1
3 3 5 7 5 2 3 5 4 3 6 6 6 6 6 7 7 7 6 7 8 8 10 10 9 8 8 6 4 4 3 3 3 3 4 5 4 5 4 3 4 3 3 2 2 2 2 2 1
3 4 8 10 5 2 4 5 4 3 4 4 5 5 6 7 6 6 6 7 8 8 10 12 10 9 8 6 5 5 4 3 3 3 5 6 5 5 5 4 4 3 3 3 3 2 3 2 1
4 5 7 8 3 0 2 4 3 3 4 5 6 7 7 6 5 7 7 7 9 10 10 11 10 9 8 6 5 3 4 3 2 2 4 5 6 6 5 5 4 4 3 3 3 3 2 2 2
5 5 6 6 4 3 2 5 2 1 1 2 3 4 5 8 8 8 8 8 9 9 10 10 10 9 8 7 5 4 4 3 2 2 3 3 5 5 5 6 5 4 4 3 3 3 4 3 2
6 6 5 4 1 3 2 4 6 2 2 3 4 4 5 7 8 8 8 9 9 9 8 8 9 9 8 8 8 8 5 4 4 4 3 3 4 5 5 6 5 5 4 4 3 3 2 3 2
7 1 0 0 2 1 2 1 8 2 3 5 5 5 5 7 9 10 9 9 9 9 9 9 9 8 8 8 9 8 5 3 3 3 5 4 3 4 5 5 5 5 4 4 4 3 3 2 3
3 5 5 5 5 1 2 2 7 4 5 4 4 4 5 6 7 8 8 7 7 8 9 9 10 8 8 8 8 8 8 7 6 5 5 4 3 3 4 5 5 5 4 4 4 4 4 3 3
4 5 4 5 4 5 2 2 10 7 5 4 5 5 4 5 6 8 9 9 9 9 10 9 10 9 9 9 8 8 8 9 8 7 7 5 4 3 5 5 5 4 4 5 4 4 4 4 4
5 9 7 4 5 5 2 6 9 4 2 3 3 3 4 5 5 7 9 9 10 10 10 10 11 10 10 9 9 8 8 6 5 7 6 6 5 5 5 6 6 5 6 5 5 3 4 3 4
5 4 6 7 2 2 5 7 9 2 1 2 2 3 4 5 6 6 7 8 9 10 10 11 11 9 9 9 8 7 8 7 7 6 6 5 4 5 6 6 6 6 6 6 6 4 4 4 4
4 8 6 6 5 3 5 5 6 5 4 3 3 4 4 4 5 5 6 7 7 8 8 8 9 9 8 8 8 7 7 7 7 6 6 6 6 5 6 7 7 6 6 6 6 4 4 5 4
3 4 5 4 5 6 3 8 6 6 5 5 4 4 5 6 6 6 6 6 6 6 7 7 8 7 7 8 7 7 7 7 7 7 7 7 6 6 7 7 7 7 7 7 6 6 6 6 5
3 6 8 6 5 5 4 9 3 3 3 4 4 3 4 5 5 5 5 6 6 7 6 7 7 8 8 8 7 7 7 7 7 7 7 7 7 7 7 7 7 8 8 8 8 8 7 7 7
Wind_Direction
178 152 147 110 55 44 279 249 221 229 248 234 149 150 158 162 178 210 117 141 137 144 150 151 148 143 138 135 132 130 128 127 126 126 127 128 127 125 124 122 120 118 116 114 112 112 111 110 111
137 152 126 66 77 24 284 228 210 214 180 101 89 99 115 162 103 115 130 143 140 143 146 150 150 146 143 139 136 134 132 130 129 129 129 130 129 128 126 124 123 120 118 115 114 114 113 113 113
146 158 87 69 101 203 256 225 204 186 151 140 111 68 147 163 139 147 150 143 138 143 145 155 152 150 146 143 140 138 136 134 133 132 132 132 130 128 127 126 124 121 120 117 116 116 115 114 114
120 62 58 64 262 242 236 232 183 157 162 163 143 124 84 59 149 148 142 143 141 143 147 158 154 153 150 147 144 143 140 138 137 136 135 134 133 132 130 128 126 123 121 118 117 116 116 115 115
70 79 56 2 265 256 245 221 182 175 179 155 145 146 73 19 113 132 142 145 145 144 150 158 157 155 153 151 149 147 145 144 142 141 139 137 136 134 134 130 128 126 124 121 119 118 116 114 113
63 69 74 287 274 269 251 202 164 171 161 148 151 143 57 86 127 140 143 143 146 146 147 154 159 158 157 155 153 151 150 149 146 145 143 142 140 138 136 136 133 129 127 124 121 118 114 108 107
110 105 177 246 279 287 264 156 158 160 169 179 154 134 143 142 141 140 139 138 143 148 149 154 158 161 161 159 157 155 155 153 151 150 149 148 145 144 143 140 138 135 132 128 124 120 112 105 101
135 107 266 257 258 274 292 83 145 147 174 136 135 157 191 168 141 131 129 134 143 149 151 152 154 155 156 158 159 158 157 157 156 154 153 153 151 150 149 142 144 142 140 135 130 121 111 101 97
115 81 242 238 229 255 199 109 133 113 116 117 140 179 161 140 141 139 140 142 154 159 157 154 153 148 145 151 164 162 161 162 160 157 159 152 129 129 141 152 153 149 146 142 134 121 105 90 81
120 170 231 224 218 234 247 214 176 140 140 180 122 96 129 145 154 159 163 165 168 170 168 161 154 151 149 161 155 148 150 149 141 138 136 116 111 130 143 169 160 154 150 143 132 115 91 70 52
174 210 240 247 235 234 236 211 166 152 197 211 185 155 151 159 167 172 175 174 173 172 172 166 159 154 155 149 142 137 130 130 131 135 125 121 115 116 114 106 130 120 122 82 82 75 66 70 72
205 246 242 266 256 224 206 173 163 187 219 202 168 157 160 170 178 182 180 177 171 172 172 161 160 154 153 142 144 140 139 140 143 144 138 133 128 128 123 113 100 85 75 83 72 74 77 73 80
227 264 259 260 274 228 171 175 171 216 214 133 141 154 168 177 179 178 178 172 169 172 168 167 166 163 153 141 152 155 151 150 148 145 146 147 146 152 142 126 110 104 100 104 95 84 86 73 66
252 267 287 288 275 233 156 192 153 213 147 135 147 166 177 178 173 169 172 176 180 175 172 172 173 166 155 153 157 153 153 148 148 152 158 157 154 155 149 139 134 131 129 116 108 101 89 68 55
299 308 317 302 282 235 126 296 224 177 146 149 163 171 173 176 175 181 179 180 184 177 173 177 174 165 164 159 163 157 155 149 154 157 156 155 156 158 151 148 153 152 134 121 98 80 70 73 63
359 10 330 305 309 248 133 265 258 157 155 161 169 172 172 177 182 182 177 179 179 173 172 179 179 170 169 160 157 151 154 151 154 151 151 154 158 158 150 154 156 145 133 126 117 91 78 62 62
23 359 303 306 302 95 180 258 265 163 165 171 172 169 170 175 189 190 185 182 178 175 171 176 172 170 167 157 151 145 146 151 150 151 152 153 154 154 150 149 143 137 130 127 133 89 95 90 69
287 299 294 291 290 315 270 261 269 186 183 183 174 170 178 188 198 192 189 180 178 178 171 173 171 169 158 147 135 128 132 141 141 156 156 151 150 149 142 134 133 133 127 120 112 102 78 80 78
236 264 280 279 286 280 263 268 255 202 185 186 184 183 193 197 190 178 183 178 174 177 174 173 173 168 158 155 153 151 156 152 152 163 156 153 151 149 141 133 131 134 136 140 133 112 90 63 62
229 274 282 294 342 82 285 285 253 206 204 201 198 198 201 188 177 176 177 177 178 180 178 174 172 168 163 163 153 145 137 140 141 148 146 152 151 152 150 143 145 142 130 126 128 126 115 73 57
251 230 253 270 327 24 358 319 289 275 241 223 222 212 198 191 188 185 181 181 183 181 181 178 173 167 160 151 131 121 107 97 110 137 148 159 156 157 149 151 147 147 144 148 147 142 136 127 72
264 243 232 253 307 302 28 291 290 266 282 248 237 223 210 196 189 187 185 186 188 185 178 169 165 162 158 156 159 162 160 160 175 165 158 155 159 156 154 153 151 150 150 153 159 144 138 135 133
226 272 69 316 147 345 356 220 287 307 266 254 242 230 219 196 188 188 188 190 184 177 170 164 159 162 163 167 168 167 159 148 139 138 147 155 157 162 162 157 154 155 157 159 151 142 143 140 147
177 68 52 49 69 321 265 191 278 246 231 244 233 232 216 196 190 188 182 177 173 167 165 165 165 167 166 167 168 169 163 156 152 157 162 163 157 164 172 164 163 164 162 162 158 154 151 146 141
121 92 24 355 3 259 268 229 252 249 228 213 217 224 215 192 183 178 173 174 173 171 169 170 168 173 171 170 173 176 172 168 172 172 172 169 168 179 187 175 171 172 174 170 160 156 160 159 154
179 146 159 203 234 277 300 246 256 247 223 205 202 205 192 177 177 179 177 175 176 175 173 173 175 179 176 177 178 176 172 174 181 179 173 180 186 188 180 179 178 178 174 172 166 163 172 167 168
148 176 162 138 160 274 281 282 299 241 174 167 171 171 173 172 176 181 174 173 175 177 178 179 176 176 179 179 174 175 178 182 183 180 176 180 185 184 179 180 180 181 180 174 166 174 179 170 176
146 142 106 125 152 249 286 276 257 260 223 203 190 192 185 173 173 171 170 174 177 176 171 169 171 176 176 175 178 182 184 187 181 175 182 186 190 186 177 183 186 186 184 180 175 175 179 175 184
118 116 118 124 154 164 246 269 233 224 211 196 199 192 183 179 179 177 169 167 164 159 160 166 169 168 172 178 179 180 184 184 180 184 191 191 190 188 189 189 189 190 189 185 184 189 183 187 194
175 169 148 156 208 181 187 264 278 213 208 180 185 187 180 173 171 165 155 152 153 159 163 171 173 176 181 179 179 185 183 180 185 194 194 189 192 193 194 190 192 197 195 190 192 198 195 197 201